Regional Weather Roundup
Issued by NWS

Home | Current Version | Previous Version | Text Only | Print | Product List | Glossary Off
Versions: 1 2 3 4 5 6 7 8 9 10 11 12 13 14 15 16 17 18 19 20 21 22 23 24 25 26 27 28 29 30 31 32 33 34 35 36 37 38 39 40 41 42 43 44 45 46 47 48 49 50

000
ASUS43 KMKX 241410
RWRWI

WISCONSIN REGIONAL WEATHER ROUNDUP
NATIONAL WEATHER SERVICE MILWAUKEE/SULLIVAN WI
800 AM CST SAT FEB 24 2018

NOTE: "FAIR" INDICATES FEW OR NO CLOUDS BELOW 12,000 FEET WITH NO
SIGNIFICANT WEATHER AND/OR OBSTRUCTIONS TO VISIBILITY.

WIZ001-002-006>008-014>016-023>028-241500-
NORTHWEST WISCONSIN

CITY           SKY/WX    TMP DP  RH WIND       PRES   REMARKS
SUPERIOR ARPT  FAIR       3   0  88 CALM      30.21S
ASHLAND        FAIR       6   4  91 SW3       30.20R FOG
HAYWARD        FAIR       2  -3  80 NE5       30.17F HAZE    WCI  -8
SIREN          FAIR      -2  -6  84 CALM      30.18S
CUMBERLAND     SNOW       3   0  85 CALM      30.16S VSB 1/4
RICE LAKE      SNOW      11   9  90 CALM      30.19S VSB<1/4
CHETEK         SNOW      10   7  91 E3        30.19R VSB 1/2
LADYSMITH      SNOW      11   8  89 CALM      30.19S VSB<1/4
EAU CLAIRE     CLOUDY    13  11  92 NE5       30.17F FOG     WCI   5
MENOMONIE      FOG       12   9  90 CALM      30.18S VSB<1/4
NEW RICHMOND   LGT SNOW   2  -2  83 CALM      30.17S VSB 3/4
OSCEOLA        LGT SNOW   3  -1  85 CALM      30.20F
$$

WIZ003>005-009-010-017-018-241500-
NORTH CENTRAL WISCONSIN

CITY           SKY/WX    TMP DP  RH WIND       PRES   REMARKS
MANITOWISH WTR FOG       10  10  98 CALM      30.15S VSB 1/2
ARBOR VITAE    FOG       17  14  90 CALM      30.15F VSB 1/2
WOODRUFF       FOG       17  14  90 CALM      30.15F VSB 1/2
RHINELANDER    FOG        9   8  96 CALM      30.16F VSB<1/4
EAGLE RIVER    CLOUDY    13  10  88 CALM      30.16S FOG
LAND O LAKES   FOG       11   9  89 CALM      30.18R VSB<1/4
PHILLIPS       SNOW       7   6  93 CALM      30.15F VSB 1/2
TOMAHAWK       SNOW      10   7  89 CALM      30.18S VSB 1/4
MEDFORD        SNOW       9   6  89 CALM      30.15F VSB<1/4
MERRILL        FOG       14  12  92 CALM      30.19F VSB<1/4
$$

WIZ029-030-035-036-043>047-241500-
CENTRAL WISCONSIN

CITY           SKY/WX    TMP DP  RH WIND       PRES   REMARKS
WAUSAU         FOG       19  16  88 NE3       30.16F VSB<1/4
MOSINEE        FOG       16  16 100 N3        30.18F VSB 1/8
MARSHFIELD     FOG       16  14  92 NE8       30.14F VSB<1/4 WCI   5
STEVENS POINT  FAIR      15  15  99 NE5       30.18F FOG     WCI   7
WAUPACA        FAIR      26  23  91 CALM      30.21F FOG
WAUTOMA        FAIR      23  21  92 E5          N/A  FOG     WCI  17
WISC RAPIDS    FAIR      19  16  88 NE5       30.18F FOG     WCI  12
CAMP DOUGLAS   SUNNY     19  19 100 E6        30.17S FOG     WCI  11
$$

WIZ011>013-019>022-031-037>040-048>050-241500-
NORTHEAST WISCONSIN

CITY           SKY/WX    TMP DP  RH WIND       PRES   REMARKS
ANTIGO         FOG       10   8  92 CALM      30.18S VSB<1/4
SHAWANO        FAIR      26  23  87 CALM      30.22S
OCONTO         FAIR      29  26  86 CALM      30.23S
STURGEON BAY   CLOUDY    30  26  85 E3        30.24S
GREEN BAY      FAIR      31  23  72 E7        30.22F WCI  24
MANITOWOC      CLOUDY    31  25  78 E8        30.23F WCI  23
APPLETON       MOSUNNY   28  19  69 VRB3      30.19F
CLINTONVILLE   FAIR      24  22  91 NE3       30.22F FOG
OSHKOSH        FAIR      29  23  78 E6        30.20F WCI  23
$$

WIZ032>034-041-042-053>061-241500-
SOUTHWEST WISCONSIN

CITY           SKY/WX    TMP DP  RH WIND       PRES   REMARKS
LA CROSSE      FAIR      20  17  88 NW7       30.16F FOG     WCI  11
SPARTA         FAIR      18  17  97 CALM      30.17S FOG
VIROQUA        FAIR      24  24 100 E12       30.11F WCI  13
BOSCOBEL       FAIR      27  22  81 E3        30.16F HAZE
PRAIRIE DU CHI FAIR      26  22  85 CALM      30.16R
PLATTEVILLE    FAIR      28  27  96 E14       30.14S WCI  17
$$

WIZ056-057-062-063-064-067-068-241500-
SOUTH CENTRAL WISCONSIN

CITY           SKY/WX    TMP DP  RH WIND       PRES   REMARKS
REEDSBURG      FAIR      23  23 100 NE7       30.16F FOG     WCI  15
BARABOO/DELLS  FAIR      24  22  95 E7        30.16F FOG     WCI  16
LONE ROCK      FAIR      29  24  82 E13       30.17F HAZE    WCI  19
MINERAL POINT  CLOUDY    30  30 100 E13       30.12F WCI  20
MADISON        PTSUNNY   28  23  81 E9        30.18S WCI  19
MIDDLETON      PTSUNNY   29  25  84 E8        30.17S WCI  21
WATERTOWN      CLOUDY    29  27  90 E7        30.18S WCI  22
MONROE         CLOUDY    30  27  86 E10       30.15R WCI  21
JANESVILLE     CLOUDY    30  30 100 E12       30.16F WCI  21
$$

WIZ051-052-058>065-066-070>072-241500-
SOUTHEAST WISCONSIN

CITY           SKY/WX    TMP DP  RH WIND       PRES   REMARKS
MILWAUKEE      CLOUDY    34  27  75 E13       30.19F WCI  25
WAUKESHA       CLOUDY    28  25  86 E10       30.19F WCI  19
MILWAUKEE/TIMM CLOUDY    32  23  69 E8        30.21F WCI  25
RACINE         CLOUDY    34  27  75 E13       30.21S WCI  25
BURLINGTON     CLOUDY    32  26  80 E8        30.18S WCI  24
KENOSHA        CLOUDY    33  27  78 E14       30.18F WCI  23
FOND DU LAC    FAIR      30  22  72 E5        30.20F WCI  25
SHEBOYGAN      CLOUDY    31  25  78 E12       30.21F WCI  22
WEST BEND      CLOUDY    30  28  93 E3        30.20S
JUNEAU         CLOUDY    27  23  84 E7        30.19S WCI  20
$$

LSZ147-162-241500-
LAKE SUPERIOR

STATION/POSITION TIME  TEMP    WIND        PRES    WAVE
                       AIR SEA DIR/SP/G            HT/PER
                 (UTC) (F)     (DEG/KT/KT) (MB)    (FT/S)
DEVILS ISLAND    1400   17     220/  8/  9 1024.3R
SAXON HARBOR     1340   10     190/  3/  4 1022.4R
$$

LMZ867-665-643>646-241500-
LAKE MICHIGAN

STATION/POSITION TIME  TEMP    WIND        PRES    WAVE
                       AIR SEA DIR/SP/G            HT/PER
                 (UTC) (F)     (DEG/KT/KT) (MB)    (FT/S)
NORTHPORT PIER   1340   31                 1023.7S
KEWAUNEE LAKESHO 1348   32     100/  5/  9 1023.3R
SHEBOYGAN LAKESH 1400   33      60/ 13/ 14 1023.9F
PORT WASHINGTON  1330   34      80/ 11/ 15 1024.0F
KENOSHA   LAKESH 1400   34      80/ 11/ 12 1022.4
$$

TC  - TEMPERATURE IN CELSIUS
VSB - VISIBILITY IN STATUTE MILES
WCI - WIND CHILL INDEX
HX  - HEAT INDEX





USA.gov is the U.S. government's official web portal to all federal, state and local government web resources and services.